[[{"header":{"parameterUnit":"m.s-1","parameterCategory":1,"la1":30.2991,"la2":30.254,"lo1":-89.0895,"lo2":-89.0444,"dy":0.0017,"dx":0.0017,"nx":28,"ny":28,"refTime":"2025-11-18T09:00:00:Z","depth":0,"parameterNumber":2,"parameterNumberName":"U-component_of_WINDS"},"data":[0,0,0,0,0,0,0,0,0,0,0,0,0,0,0,0,0,0,0,0,0,0,0,0,0,0,0,0,0,0,0,0,0,0,0,0,0,0,0,0,0,0,0,0,0,0,0,0,0,0,0,0,0,0,0,0,0,0,-3.1447,-3.1449,0,-3.1639,-3.1641,-3.1643,-3.1691,-3.169,-3.1689,-3.1688,-3.1885,-3.1891,-3.1897,0,0,0,0,0,0,0,0,0,0,0,0,0,-3.1124,-3.113,-3.1447,-3.1449,-3.1452,-3.1639,-3.1641,-3.1644,-3.1692,-3.169,-3.1689,-3.1687,-3.1883,-3.189,-3.1898,0,0,0,0,0,0,0,0,0,0,0,0,0,-3.1285,-3.1132,-3.1446,-3.1498,-3.1505,-3.1638,-3.1641,-3.1645,-3.1692,-3.169,-3.1688,-3.1687,-3.188,-3.189,-3.1899,-3.1995,0,0,-3.1928,-3.1932,0,0,0,0,0,0,0,0,-3.1276,-3.1297,-3.1488,-3.1495,-3.1502,-3.1639,-3.16,-3.1762,-3.1692,-3.1621,-3.1688,-3.1686,-3.1805,-3.182,-3.186,-3.2004,-3.2013,-3.1929,-3.1935,-3.1939,-3.1942,0,0,0,0,0,0,0,-3.1265,-3.1289,-3.1523,-3.1491,-3.15,-3.1513,-3.1533,-3.1631,-3.1721,-3.1627,-3.1631,-3.1653,-3.1808,-3.1851,-3.1865,-3.2015,-3.1929,-3.1937,-3.1943,-3.1947,-3.225,-3.2252,0,0,0,0,0,0,-3.1245,-3.1279,-3.1517,-3.1529,-3.1382,-3.152,-3.1543,-3.1597,-3.172,-3.1737,-3.1654,-3.1654,-3.1836,-3.1854,-3.1872,-3.1993,-3.1939,-3.1948,-3.1953,-3.2247,-3.225,-3.2253,0,0,0,0,0,0,-3.1237,-3.1265,-3.1509,-3.1405,-3.1437,-3.1527,-3.1588,-3.1602,-3.1645,-3.174,-3.1757,-3.1681,-3.1835,-3.1859,-3.1964,-3.2,-3.1952,-3.1961,-3.2245,-3.2248,-3.2251,-3.2234,0,0,0,0,0,0,-3.1228,-3.1262,-3.1299,-3.1406,-3.1443,-3.1597,-3.159,-3.1607,-3.1661,-3.1663,-3.177,-3.1786,-3.1835,-3.195,-3.1974,-3.2013,-3.1968,-3.2242,-3.2246,-3.225,-3.2232,-3.2237,-3.2241,0,0,0,0,0,-3.1216,-3.1286,-3.13,-3.1329,-3.149,-3.1599,-3.162,-3.1675,-3.1664,-3.1702,-3.1764,-3.1783,-3.1993,-3.196,-3.1988,-3.203,-3.224,-3.2245,-3.225,-3.223,-3.2236,-3.2241,0,0,0,0,0,0,-3.118,-3.1301,-3.1318,-3.1424,-3.1501,-3.1606,-3.1655,-3.1679,-3.176,-3.1759,-3.1824,-3.1848,-3.1949,-3.2001,-3.1962,-3.213,-3.2117,-3.2127,-3.2092,-3.2098,-3.2103,-3.2087,-3.1976,0,0,0,0,0,-3.1185,-3.1263,-3.1364,-3.1448,-3.1486,-3.1564,-3.1614,-3.165,-3.1732,-3.1764,-3.1834,-3.1913,-3.1998,-3.2051,-3.2134,-3.2241,-3.2265,-3.2284,-3.2288,-3.2292,-3.2299,-3.2361,-3.237,-3.2269,-3.2269,-3.2269,0,0,-3.1195,-3.127,-3.1315,-3.1443,-3.1507,-3.1586,-3.1591,-3.1675,-3.1734,-3.1777,-3.188,-3.1935,-3.2028,-3.2135,-3.2185,-3.2181,-3.2333,-3.2298,-3.23,-3.2306,-3.2367,-3.2376,-3.2384,-3.2273,-3.2272,-3.2272,0,0,-3.1253,-3.1318,-3.1395,-3.146,-3.1556,-3.1608,-3.1627,-3.173,-3.1768,-3.1873,-3.1907,-3.1981,-3.2124,-3.2189,-3.2241,-3.2328,-3.2349,-3.2354,-3.2375,-3.2434,-3.2442,-3.2449,-3.248,-3.249,-3.2362,-3.2362,-3.2362,0,-3.1252,-3.1373,-3.1432,-3.1515,-3.157,-3.1614,-3.1694,-3.1753,-3.1872,-3.191,-3.1904,-3.2086,-3.2152,-3.2275,-3.2296,-3.2337,-3.2361,-3.234,-3.2436,-3.2444,-3.2452,-3.2481,-3.2493,-3.2361,-3.2361,-3.2361,-3.2361,0,-3.1368,-3.1451,-3.1503,-3.1616,-3.1678,-3.1759,-3.1831,-3.1887,-3.1919,-3.1972,-3.208,-3.2161,-3.2262,-3.2294,-3.2326,-3.2423,-3.2417,-3.2423,-3.241,-3.246,-3.2489,-3.2501,-3.2361,-3.2361,-3.2361,-3.2361,0,0,-3.1404,-3.1552,-3.157,-3.1623,-3.1734,-3.18,-3.1884,-3.1983,-3.2029,-3.2111,-3.2183,-3.2305,-3.2312,-3.2371,-3.2412,-3.2464,-3.2527,-3.2464,-3.2467,-3.2471,-3.2638,-3.2631,-3.2643,-3.2543,-3.2546,-3.2548,-3.263,0,-3.1475,-3.1624,-3.1682,-3.1804,-3.1883,-3.1928,-3.2001,-3.2078,-3.2131,-3.2206,-3.2266,-3.2351,-3.2354,-3.239,-3.2444,-3.2508,-3.2561,-3.2503,-3.261,-3.2613,-3.2582,-3.2659,-3.2651,-3.2725,-3.2642,-3.2644,-3.2645,0,-3.1576,-3.1659,-3.1789,-3.1893,-3.1928,-3.1992,-3.2088,-3.216,-3.2249,-3.2284,-3.2352,-3.239,-3.248,-3.2464,-3.2591,-3.255,-3.2598,-3.2637,-3.2641,-3.2651,-3.263,-3.2669,-3.275,-3.276,-3.2664,-3.2663,-3.2661,0,-3.1587,-3.1732,-3.1829,-3.1873,-3.1997,-3.2042,-3.2095,-3.2183,-3.2239,-3.2324,-3.2362,-3.2456,-3.2507,-3.258,-3.2643,-3.2625,-3.2764,-3.2753,-3.2795,-3.2793,-3.2819,-3.2816,-3.2907,-3.2854,-3.2854,-3.2854,-3.2853,0,-3.1658,-3.1736,-3.1836,-3.1895,-3.1985,-3.2052,-3.2138,-3.2195,-3.2274,-3.2346,-3.2392,-3.2458,-3.2539,-3.2616,-3.2667,-3.2764,-3.2787,-3.2818,-3.283,-3.2813,-3.2808,-3.2843,-3.2838,-3.2857,-3.2856,-3.2856,-3.2855,0,-3.1685,-3.1755,-3.1864,-3.1973,-3.2003,-3.2063,-3.2157,-3.2218,-3.2274,-3.2365,-3.239,-3.248,-3.2574,-3.2645,-3.2767,-3.2801,-3.2903,-3.2917,-3.2872,-3.2878,-3.2916,-3.2911,-3.303,-3.3049,-3.2985,-3.2985,-3.2986,0,-3.1724,-3.1785,-3.1901,-3.1953,-3.2006,-3.2089,-3.2147,-3.2217,-3.2276,-3.2384,-3.2431,-3.2529,-3.261,-3.2758,-3.2834,-3.2929,-3.2944,-3.2979,-3.2958,-3.2939,-3.2943,-3.2937,-3.2944,-3.2981,-3.2981,-3.2981,-3.2982,0,-3.1786,-3.1818,-3.19,-3.1995,-3.2063,-3.2141,-3.222,-3.226,-3.2344,-3.2408,-3.2505,-3.2568,-3.2694,-3.279,-3.2893,-3.2949,-3.298,-3.2989,-3.3003,-3.2984,-3.2955,-3.297,-3.2878,-3.2985,-3.2984,-3.2984,-3.2984,-3.2984,-3.1819,-3.1875,-3.1967,-3.2057,-3.2124,-3.2197,-3.2259,-3.2325,-3.2407,-3.2514,-3.2551,-3.2651,-3.2742,-3.2883,-3.2941,-3.3021,-3.3021,-3.3042,-3.3047,-3.3051,-3.3049,-3.2945,-3.304,-3.304,-3.304,-3.304,-3.304,0,-3.1882,-3.1944,-3.2026,-3.2135,-3.2207,-3.2231,-3.232,-3.2378,-3.2466,-3.2548,-3.2627,-3.274,-3.2834,-3.2919,-3.3018,-3.3066,-3.3082,-3.3089,-3.3085,-3.3098,-3.3043,-3.302,-3.3074,-3.3074,-3.3074,-3.3074,-3.3074,-3.3074,-3.1923,-3.202,-3.2064,-3.2195,-3.2257,-3.2355,-3.2404,-3.2473,-3.2539,-3.2662,-3.274,-3.2796,-3.288,-3.2985,-3.3074,-3.3097,-3.313,-3.3133,-3.3159,-3.3106,-3.3101,-3.3097,-3.3075,-3.314,-3.314,-3.3207,-3.3207,-3.3207]},{"header":{"parameterUnit":"m.s-1","parameterCategory":1,"la1":30.2991,"la2":30.254,"lo1":-89.0895,"lo2":-89.0444,"dy":0.0017,"dx":0.0017,"nx":28,"ny":28,"refTime":"2025-11-18T09:00:00:Z","depth":0,"parameterNumber":3,"parameterNumberName":"V-component_of_WINDS"},"data":[0,0,0,0,0,0,0,0,0,0,0,0,0,0,0,0,0,0,0,0,0,0,0,0,0,0,0,0,0,0,0,0,0,0,0,0,0,0,0,0,0,0,0,0,0,0,0,0,0,0,0,0,0,0,0,0,0,0,1.7558,1.7559,0,1.7644,1.7645,1.7646,1.7746,1.7748,1.7749,1.7751,1.7834,1.7834,1.7835,0,0,0,0,0,0,0,0,0,0,0,0,0,1.7476,1.7477,1.7558,1.7559,1.756,1.7644,1.7645,1.7646,1.7746,1.7748,1.775,1.7752,1.7833,1.7834,1.7835,0,0,0,0,0,0,0,0,0,0,0,0,0,1.7531,1.7477,1.7558,1.762,1.7627,1.7643,1.7645,1.7646,1.7746,1.7748,1.775,1.7753,1.7833,1.7834,1.7835,1.7796,0,0,1.7839,1.7839,0,0,0,0,0,0,0,0,1.7528,1.7534,1.761,1.7616,1.7623,1.7687,1.7646,1.7696,1.7745,1.77,1.7751,1.7754,1.7782,1.7788,1.7799,1.78,1.7803,1.7839,1.7839,1.784,1.784,0,0,0,0,0,0,0,1.7524,1.7531,1.7592,1.7611,1.7619,1.7643,1.7653,1.7656,1.7727,1.7704,1.7712,1.7721,1.7787,1.7797,1.7801,1.7804,1.7839,1.784,1.784,1.7841,1.7779,1.7776,0,0,0,0,0,0,1.7512,1.7527,1.7589,1.7594,1.7581,1.7642,1.7654,1.7664,1.7727,1.7739,1.7719,1.7725,1.7794,1.78,1.7805,1.7764,1.784,1.7841,1.7842,1.7781,1.7778,1.7776,0,0,0,0,0,0,1.751,1.7516,1.7586,1.7563,1.7574,1.7641,1.7652,1.7664,1.7676,1.7739,1.7751,1.7717,1.7796,1.7803,1.7798,1.7768,1.7842,1.7843,1.7784,1.778,1.7777,1.7681,0,0,0,0,0,0,1.7507,1.7515,1.7502,1.7562,1.7574,1.7578,1.765,1.7664,1.7678,1.7687,1.774,1.7751,1.7799,1.7796,1.7799,1.7771,1.7843,1.7787,1.7782,1.7778,1.7687,1.7675,1.7664,0,0,0,0,0,1.7504,1.747,1.75,1.7507,1.7559,1.7576,1.7583,1.764,1.7675,1.7662,1.7702,1.775,1.7771,1.7794,1.7799,1.7771,1.7789,1.7783,1.7778,1.7692,1.7677,1.7664,0,0,0,0,0,0,1.7402,1.7479,1.7514,1.7499,1.753,1.7593,1.7578,1.7622,1.7643,1.7651,1.7718,1.773,1.7716,1.7743,1.7768,1.7737,1.7787,1.7782,1.772,1.7706,1.7695,1.7689,1.7844,0,0,0,0,0,1.7378,1.7387,1.7453,1.7433,1.7448,1.751,1.7519,1.7561,1.7596,1.7609,1.7649,1.768,1.7694,1.7701,1.7717,1.7692,1.7705,1.7674,1.7663,1.7653,1.7648,1.7638,1.7625,1.7758,1.7758,1.7758,0,0,1.7328,1.7371,1.7372,1.7414,1.7444,1.745,1.752,1.7524,1.753,1.7609,1.7608,1.7638,1.7677,1.7661,1.7656,1.7683,1.7615,1.7646,1.7638,1.7639,1.7631,1.7618,1.7607,1.7755,1.7755,1.7756,0,0,1.7241,1.7274,1.7263,1.7291,1.7336,1.7378,1.7375,1.7431,1.7455,1.7455,1.7516,1.7522,1.7544,1.757,1.7586,1.7509,1.7554,1.7512,1.7452,1.7441,1.743,1.7421,1.7395,1.7384,1.7507,1.7507,1.7507,0,1.7173,1.7187,1.725,1.7251,1.7268,1.7342,1.733,1.7354,1.74,1.741,1.7439,1.747,1.7501,1.7493,1.7475,1.7485,1.7483,1.7507,1.7427,1.7419,1.7411,1.7387,1.7376,1.7502,1.7502,1.7503,1.7503,0,1.7102,1.711,1.7095,1.7141,1.7156,1.7149,1.7211,1.7218,1.7258,1.7296,1.7295,1.7335,1.7361,1.7362,1.74,1.736,1.7376,1.7415,1.7467,1.7392,1.737,1.7361,1.7494,1.7496,1.7498,1.7499,0,0,1.6953,1.7035,1.7028,1.7051,1.7106,1.7113,1.711,1.7138,1.7143,1.7172,1.7171,1.7189,1.7226,1.7244,1.7286,1.7276,1.7214,1.7317,1.7319,1.7297,1.7173,1.7143,1.7131,1.7244,1.7242,1.7241,1.717,0,1.6877,1.6879,1.6936,1.6921,1.693,1.7001,1.6999,1.7031,1.7067,1.7079,1.7118,1.713,1.7178,1.7189,1.7182,1.7223,1.719,1.7228,1.7243,1.7243,1.7232,1.712,1.7089,1.702,1.7162,1.716,1.7159,0,1.6788,1.6815,1.6802,1.6859,1.6864,1.6861,1.6892,1.6902,1.6941,1.6968,1.6988,1.7036,1.7036,1.7085,1.7086,1.7111,1.712,1.7141,1.714,1.7144,1.7197,1.7121,1.6999,1.6989,1.7146,1.7147,1.7148,0,1.6682,1.6715,1.6712,1.6728,1.6794,1.679,1.6817,1.6858,1.6871,1.6897,1.6907,1.6931,1.6944,1.6962,1.7015,1.7045,1.701,1.7063,1.7032,1.703,1.7022,1.7021,1.69,1.7026,1.7026,1.7026,1.7026,0,1.6591,1.6581,1.6665,1.6663,1.6653,1.6718,1.6706,1.6739,1.6775,1.678,1.6842,1.6845,1.6915,1.6925,1.6966,1.6962,1.6967,1.6988,1.6999,1.6983,1.698,1.699,1.6997,1.7024,1.7024,1.7025,1.7025,0,1.6472,1.6528,1.6529,1.6592,1.6608,1.6597,1.6651,1.6651,1.6691,1.6696,1.6701,1.6763,1.6779,1.6834,1.6862,1.689,1.6872,1.6893,1.686,1.6867,1.6833,1.6836,1.6714,1.6702,1.6834,1.6833,1.6832,0,1.6411,1.6405,1.6467,1.6476,1.6501,1.6514,1.6529,1.6592,1.6604,1.6648,1.6643,1.6664,1.6684,1.6706,1.6753,1.6775,1.6797,1.6753,1.6801,1.6785,1.6798,1.6798,1.6798,1.6743,1.6741,1.6739,1.6738,0,1.6297,1.6325,1.6345,1.6374,1.639,1.6415,1.6444,1.6447,1.6518,1.6528,1.6547,1.6562,1.6593,1.6613,1.6643,1.6669,1.6715,1.6723,1.6717,1.6701,1.6682,1.6693,1.6832,1.6725,1.6727,1.6728,1.6728,1.6729,1.6205,1.6204,1.6248,1.6268,1.6297,1.6323,1.6327,1.6368,1.6384,1.6415,1.6451,1.6465,1.6504,1.6549,1.6572,1.6583,1.6608,1.6599,1.6597,1.6594,1.6587,1.668,1.6589,1.6589,1.6589,1.659,1.659,0,1.6096,1.6128,1.6146,1.6185,1.6201,1.6244,1.6279,1.6288,1.63,1.6333,1.6353,1.6373,1.6394,1.6442,1.6466,1.6466,1.6488,1.647,1.6471,1.6477,1.6563,1.6566,1.6452,1.6452,1.6452,1.6452,1.6452,1.6452,1.6041,1.6041,1.6074,1.6089,1.6121,1.6136,1.6152,1.6176,1.6203,1.6224,1.6242,1.6274,1.6314,1.6342,1.6362,1.6375,1.6382,1.6357,1.6378,1.6457,1.647,1.6483,1.6486,1.6358,1.6358,1.6291,1.6291,1.629]}]]